| time (UTC) | temp F | wind direction | speed MPH | gust MPH | rain 1hr in | rain 24hr in | rain mn in | humidity % | barometer mb |
| 20260509080019 | 70 | 15 | 4.0 | 10.0 | 0.00 | 0.00 | 0.00 | 44 | 1017.4 |
| 20260509074720 | 70 | 3 | 7.0 | 10.0 | 0.00 | 0.00 | 0.00 | 43 | 1017.4 |
| 20260509074201 | 70 | 335 | 4.0 | 8.0 | 0.00 | 0.00 | 0.00 | 44 | 1017.2 |
| 20260509073421 | 71 | 18 | 9.0 | 12.0 | 0.00 | 0.00 | 0.00 | 43 | 1017.2 |
| 20260509072120 | 71 | 337 | 6.0 | 8.0 | 0.00 | 0.00 | 0.00 | 40 | 1017.2 |
| 20260509070819 | 71 | 314 | 5.0 | 11.0 | 0.00 | 0.00 | 0.00 | 41 | 1017.1 |
| 20260509065519 | 72 | 1 | 6.0 | 10.0 | 0.00 | 0.00 | 0.00 | 42 | 1017.2 |
| 20260509064202 | 72 | 339 | 4.0 | 9.0 | 0.00 | 0.00 | 0.00 | 42 | 1017.2 |
| 20260509062919 | 71 | 23 | 7.0 | 11.0 | 0.00 | 0.00 | 0.00 | 44 | 1017.2 |
| 20260509061621 | 72 | 7 | 6.0 | 11.0 | 0.00 | 0.00 | 0.00 | 43 | 1017.4 |
| 20260509061202 | 72 | 11 | 4.0 | 10.0 | 0.00 | 0.00 | 0.00 | 44 | 1017.4 |
| 20260509060319 | 72 | 329 | 6.0 | 10.0 | 0.00 | 0.00 | 0.00 | 43 | 1017.4 |
| 20260509055020 | 73 | 303 | 4.0 | 10.0 | 0.00 | 0.00 | 0.00 | 41 | 1017.4 |
| 20260509054201 | 73 | 3 | 4.0 | 10.0 | 0.00 | 0.00 | 0.00 | 41 | 1017.5 |
| 20260509053720 | 73 | 344 | 3.0 | 10.0 | 0.00 | 0.00 | 0.00 | 40 | 1017.6 |
| 20260509052419 | 73 | 310 | 5.0 | 10.0 | 0.00 | 0.00 | 0.00 | 41 | 1017.6 |
| 20260509051202 | 73 | 331 | 5.0 | 10.0 | 0.00 | 0.00 | 0.00 | 40 | 1017.8 |
| 20260509051121 | 73 | 303 | 5.0 | 6.0 | 0.00 | 0.00 | 0.00 | 40 | 1017.8 |
| 20260509045820 | 73 | 357 | 4.0 | 7.0 | 0.00 | 0.00 | 0.00 | 40 | 1017.9 |
| 20260509044520 | 73 | 331 | 8.0 | 12.0 | 0.00 | 0.00 | 0.00 | 39 | 1017.9 |
| 20260509043219 | 74 | 307 | 5.0 | 10.0 | 0.00 | 0.00 | 0.00 | 39 | 1018.0 |
| 20260509041921 | 74 | 338 | 5.0 | 8.0 | 0.00 | 0.00 | 0.00 | 39 | 1018.0 |
| 20260509040620 | 73 | 339 | 7.0 | 12.0 | 0.00 | 0.00 | 0.00 | 38 | 1018.0 |
| 20260509035319 | 73 | 14 | 4.0 | 7.0 | 0.00 | 0.00 | 0.00 | 37 | 1018.0 |
| 20260509034202 | 74 | 322 | 7.0 | 11.0 | 0.00 | 0.00 | 0.00 | 37 | 1018.0 |
| 20260509034019 | 74 | 325 | 5.0 | 11.0 | 0.00 | 0.00 | 0.00 | 37 | 1018.0 |
| 20260509032720 | 73 | 344 | 5.0 | 7.0 | 0.00 | 0.00 | 0.00 | 36 | 1018.1 |
| 20260509031420 | 74 | 268 | 1.0 | 6.0 | 0.00 | 0.00 | 0.00 | 35 | 1018.1 |
| 20260509030121 | 73 | 294 | 1.0 | 2.0 | 0.00 | 0.00 | 0.00 | 37 | 1018.4 |
| 20260509024820 | 72 | 302 | 3.0 | 6.0 | 0.00 | 0.00 | 0.00 | 37 | 1018.5 |
| 20260509023519 | 74 | 311 | 6.0 | 12.0 | 0.00 | 0.00 | 0.00 | 35 | 1018.6 |
| 20260509022219 | 74 | 311 | 2.0 | 7.0 | 0.00 | 0.00 | 0.00 | 36 | 1018.6 |
| 20260509020920 | 72 | 313 | 3.0 | 8.0 | 0.00 | 0.00 | 0.00 | 38 | 1018.9 |
| 20260509015620 | 72 | 39 | 5.0 | 8.0 | 0.00 | 0.00 | 0.00 | 37 | 1018.9 |
| 20260509014320 | 71 | 289 | 2.0 | 2.0 | 0.00 | 0.00 | 0.00 | 36 | 1019.0 |
| 20260509013019 | 70 | 260 | 1.0 | 3.0 | 0.00 | 0.00 | 0.00 | 40 | 1019.1 |
| 20260509011720 | 70 | 42 | 4.0 | 5.0 | 0.00 | 0.00 | 0.00 | 40 | 1019.2 |
| 20260509011201 | 70 | 12 | 4.0 | 5.0 | 0.00 | 0.00 | 0.00 | 39 | 1019.2 |
| 20260509010420 | 70 | 356 | 4.0 | 6.0 | 0.00 | 0.00 | 0.00 | 40 | 1019.3 |
| 20260509005119 | 69 | 5 | 5.0 | 6.0 | 0.00 | 0.00 | 0.00 | 42 | 1019.2 |
| 20260509003821 | 70 | 355 | 3.0 | 7.0 | 0.00 | 0.00 | 0.00 | 42 | 1019.2 |
| 20260509002520 | 69 | 36 | 2.0 | 4.0 | 0.00 | 0.00 | 0.00 | 48 | 1019.3 |
| 20260509001222 | 70 | 92 | 2.0 | 5.0 | 0.00 | 0.00 | 0.00 | 52 | 1019.2 |
| 20260508235923 | 68 | 167 | 1.0 | 2.0 | 0.00 | 0.00 | 0.00 | 56 | 1019.2 |
| 20260508234622 | 67 | 153 | 1.0 | 2.0 | 0.00 | 0.00 | 0.00 | 60 | 1019.3 |
| 20260508233322 | 65 | 197 | 1.0 | 3.0 | 0.00 | 0.00 | 0.00 | 62 | 1019.4 |
| 20260508232023 | 65 | 175 | 1.0 | 4.0 | 0.00 | 0.00 | 0.00 | 63 | 1019.5 |
| 20260508230723 | 64 | 231 | 2.0 | 5.0 | 0.00 | 0.00 | 0.00 | 65 | 1019.5 |
| 20260508225422 | 63 | 201 | 1.0 | 2.0 | 0.00 | 0.00 | 0.00 | 68 | 1019.5 |
| 20260508224124 | 62 | 187 | 2.0 | 4.0 | 0.00 | 0.00 | 0.00 | 69 | 1019.4 |
| 20260508222824 | 60 | 195 | 2.0 | 4.0 | 0.00 | 0.00 | 0.00 | 71 | 1019.3 |
| 20260508221523 | 60 | 186 | 2.0 | 3.0 | 0.00 | 0.00 | 0.00 | 72 | 1019.3 |
| 20260508220223 | 59 | 176 | 1.0 | 3.0 | 0.00 | 0.00 | 0.00 | 74 | 1019.2 |
| 20260508214922 | 58 | 178 | 1.0 | 4.0 | 0.00 | 0.00 | 0.00 | 76 | 1019.1 |
| 20260508213624 | 57 | 173 | 0.0 | 2.0 | 0.00 | 0.00 | 0.00 | 79 | 1018.9 |
| 20260508212323 | 55 | 164 | 0.0 | 1.0 | 0.00 | 0.00 | 0.00 | 83 | 1018.8 |
| 20260508211022 | 54 | 163 | 1.0 | 3.0 | 0.00 | 0.00 | 0.00 | 84 | 1018.6 |
| 20260508205722 | 54 | 217 | 0.0 | 1.0 | 0.00 | 0.00 | 0.00 | 84 | 1018.3 |
| 20260508204422 | 54 | 223 | 0.0 | 1.0 | 0.00 | 0.00 | 0.00 | 83 | 1018.2 |
| 20260508203123 | 54 | 157 | 1.0 | 2.0 | 0.00 | 0.00 | 0.00 | 82 | 1018.1 |
| 20260508201823 | 55 | 157 | 0.0 | 0.0 | 0.00 | 0.00 | 0.00 | 81 | 1018.0 |
| 20260508200522 | 56 | 155 | 1.0 | 4.0 | 0.00 | 0.00 | 0.00 | 79 | 1018.0 |
| 20260508195222 | 56 | 355 | 0.0 | 0.0 | 0.00 | 0.00 | 0.00 | 79 | 1018.0 |
| 20260508193923 | 56 | 355 | 0.0 | 0.0 | 0.00 | 0.00 | 0.00 | 79 | 1017.9 |
| 20260508192623 | 56 | 355 | 0.0 | 0.0 | 0.00 | 0.00 | 0.00 | 78 | 1017.8 |
| 20260508191323 | 57 | 355 | 0.0 | 0.0 | 0.00 | 0.00 | 0.00 | 77 | 1017.8 |
| 20260508190022 | 57 | 355 | 0.0 | 0.0 | 0.00 | 0.00 | 0.00 | 77 | 1017.7 |
| 20260508184722 | 57 | 355 | 0.0 | 0.0 | 0.00 | 0.00 | 0.00 | 77 | 1017.6 |
| 20260508183423 | 57 | 355 | 0.0 | 0.0 | 0.00 | 0.00 | 0.00 | 77 | 1017.5 |
| 20260508182123 | 57 | 355 | 0.0 | 0.0 | 0.00 | 0.00 | 0.00 | 78 | 1017.3 |
| 20260508180822 | 57 | 355 | 1.0 | 1.0 | 0.00 | 0.00 | 0.00 | 80 | 1017.2 |
| 20260508175522 | 56 | 355 | 0.0 | 0.0 | 0.00 | 0.00 | 0.00 | 80 | 1017.1 |
| 20260508174207 | 56 | 355 | 0.0 | 0.0 | 0.00 | 0.00 | 0.00 | 80 | 1016.9 |
| 20260508172923 | 57 | 355 | 0.0 | 1.0 | 0.00 | 0.00 | 0.00 | 79 | 1016.8 |
| 20260508171622 | 57 | 355 | 0.0 | 0.0 | 0.00 | 0.00 | 0.00 | 77 | 1016.8 |
| 20260508170323 | 57 | 355 | 0.0 | 0.0 | 0.00 | 0.00 | 0.00 | 76 | 1016.9 |
| 20260508165023 | 58 | 355 | 0.0 | 0.0 | 0.00 | 0.00 | 0.00 | 75 | 1016.7 |
| 20260508164206 | 58 | 33 | 1.0 | 4.0 | 0.00 | 0.00 | 0.00 | 75 | 1016.6 |
| 20260508163723 | 58 | 203 | 0.0 | 0.0 | 0.00 | 0.00 | 0.00 | 75 | 1016.6 |
| 20260508162422 | 58 | 202 | 0.0 | 0.0 | 0.00 | 0.00 | 0.00 | 73 | 1016.5 |
| 20260508161124 | 58 | 324 | 0.0 | 0.0 | 0.00 | 0.00 | 0.00 | 72 | 1016.3 |
| 20260508155824 | 58 | 192 | 2.0 | 3.0 | 0.00 | 0.00 | 0.00 | 72 | 1016.3 |
| 20260508154523 | 59 | 217 | 1.0 | 2.0 | 0.00 | 0.00 | 0.00 | 70 | 1016.3 |
| 20260508153223 | 59 | 184 | 1.0 | 3.0 | 0.00 | 0.00 | 0.00 | 70 | 1016.3 |
| 20260508151922 | 59 | 191 | 2.0 | 3.0 | 0.00 | 0.00 | 0.00 | 69 | 1016.3 |
| 20260508150622 | 59 | 189 | 1.0 | 5.0 | 0.00 | 0.00 | 0.00 | 69 | 1016.1 |
| 20260508145322 | 59 | 212 | 1.0 | 2.0 | 0.00 | 0.00 | 0.00 | 68 | 1016.0 |
| 20260508144205 | 60 | 212 | 0.0 | 1.0 | 0.00 | 0.00 | 0.00 | 67 | 1016.0 |
| 20260508144023 | 60 | 212 | 0.0 | 0.0 | 0.00 | 0.00 | 0.00 | 67 | 1016.0 |
| 20260508142723 | 60 | 170 | 1.0 | 2.0 | 0.00 | 0.00 | 0.00 | 66 | 1015.8 |
| 20260508141423 | 61 | 202 | 2.0 | 3.0 | 0.00 | 0.00 | 0.00 | 66 | 1015.7 |
| 20260508141204 | 61 | 196 | 1.0 | 1.0 | 0.00 | 0.00 | 0.00 | 66 | 1015.7 |
| 20260508140122 | 60 | 200 | 2.0 | 3.0 | 0.00 | 0.00 | 0.00 | 66 | 1015.8 |
| 20260508134823 | 60 | 207 | 1.0 | 1.0 | 0.00 | 0.00 | 0.00 | 65 | 1015.7 |
| 20260508134205 | 60 | 192 | 1.0 | 1.0 | 0.00 | 0.00 | 0.00 | 65 | 1015.6 |
| 20260508133522 | 60 | 187 | 2.0 | 4.0 | 0.00 | 0.00 | 0.00 | 65 | 1015.4 |
| 20260508132222 | 60 | 103 | 0.0 | 0.0 | 0.00 | 0.00 | 0.00 | 63 | 1015.6 |
| 20260508131205 | 61 | 186 | 1.0 | 2.0 | 0.00 | 0.00 | 0.00 | 62 | 1015.6 |
| 20260508130923 | 61 | 143 | 0.0 | 0.0 | 0.00 | 0.00 | 0.00 | 62 | 1015.5 |
| 20260508125623 | 61 | 211 | 0.0 | 1.0 | 0.00 | 0.00 | 0.00 | 62 | 1015.4 |
| 20260508124323 | 62 | 211 | 0.0 | 3.0 | 0.00 | 0.00 | 0.00 | 63 | 1015.3 |
| 20260508124204 | 62 | 211 | 2.0 | 4.0 | 0.00 | 0.00 | 0.00 | 63 | 1015.4 |
| 20260508123022 | 61 | 209 | 1.0 | 4.0 | 0.00 | 0.00 | 0.00 | 62 | 1015.4 |
| 20260508121722 | 61 | 214 | 1.0 | 4.0 | 0.00 | 0.00 | 0.00 | 61 | 1015.2 |
| 20260508121205 | 61 | 240 | 2.0 | 4.0 | 0.00 | 0.00 | 0.00 | 62 | 1015.2 |
| 20260508120423 | 61 | 184 | 2.0 | 5.0 | 0.00 | 0.00 | 0.00 | 62 | 1015.1 |
| 20260508115123 | 61 | 205 | 0.0 | 1.0 | 0.00 | 0.00 | 0.00 | 60 | 1015.1 |
| 20260508114204 | 62 | 205 | 1.0 | 4.0 | 0.00 | 0.00 | 0.00 | 60 | 1014.9 |
| 20260508113822 | 62 | 205 | 0.0 | 0.0 | 0.00 | 0.00 | 0.00 | 59 | 1014.9 |
| 20260508112522 | 62 | 205 | 1.0 | 3.0 | 0.00 | 0.00 | 0.00 | 59 | 1014.7 |
| 20260508111205 | 63 | 207 | 1.0 | 3.0 | 0.00 | 0.00 | 0.00 | 58 | 1014.6 |
| 20260508105923 | 63 | 209 | 1.0 | 2.0 | 0.00 | 0.00 | 0.00 | 58 | 1014.5 |
| 20260508104623 | 63 | 216 | 0.0 | 2.0 | 0.00 | 0.00 | 0.00 | 58 | 1014.3 |
| 20260508104205 | 63 | 219 | 1.0 | 2.0 | 0.00 | 0.00 | 0.00 | 58 | 1014.2 |
| 20260508103322 | 64 | 223 | 0.0 | 0.0 | 0.00 | 0.00 | 0.00 | 57 | 1014.1 |
| 20260508102024 | 64 | 236 | 2.0 | 2.0 | 0.00 | 0.00 | 0.00 | 56 | 1014.0 |
| 20260508101204 | 64 | 246 | 5.0 | 7.0 | 0.00 | 0.00 | 0.00 | 55 | 1013.9 |
| 20260508100723 | 64 | 233 | 5.0 | 9.0 | 0.00 | 0.00 | 0.00 | 55 | 1013.8 |
| 20260508095422 | 65 | 243 | 4.0 | 6.0 | 0.00 | 0.00 | 0.00 | 53 | 1013.7 |
| 20260508094205 | 66 | 195 | 3.0 | 4.0 | 0.00 | 0.00 | 0.00 | 52 | 1013.5 |
| 20260508094122 | 66 | 230 | 3.0 | 9.0 | 0.00 | 0.00 | 0.00 | 52 | 1013.5 |
| 20260508092822 | 67 | 231 | 4.0 | 6.0 | 0.00 | 0.00 | 0.00 | 51 | 1013.4 |
| 20260508091523 | 68 | 252 | 2.0 | 4.0 | 0.00 | 0.00 | 0.00 | 48 | 1013.2 |
| 20260508091204 | 68 | 243 | 4.0 | 4.0 | 0.00 | 0.00 | 0.00 | 46 | 1013.1 |
| 20260508090222 | 68 | 252 | 3.0 | 7.0 | 0.00 | 0.00 | 0.00 | 43 | 1013.1 |
| 20260508084922 | 68 | 263 | 2.0 | 5.0 | 0.00 | 0.00 | 0.00 | 43 | 1012.8 |
| 20260508084204 | 69 | 261 | 6.0 | 7.0 | 0.00 | 0.00 | 0.00 | 41 | 1012.8 |
| 20260508083623 | 70 | 256 | 4.0 | 5.0 | 0.00 | 0.00 | 0.00 | 41 | 1012.8 |
| 20260508082322 | 71 | 261 | 5.0 | 11.0 | 0.00 | 0.00 | 0.00 | 41 | 1012.5 |
| 20260508081205 | 72 | 256 | 5.0 | 15.0 | 0.00 | 0.00 | 0.00 | 43 | 1012.5 |
| 20260508081022 | 72 | 291 | 3.0 | 9.0 | 0.00 | 0.00 | 0.00 | 42 | 1012.5 |